| time (UTC) | temp C | wind direction | speed KPH | gust KPH | rain 1hr cm | rain 24hr cm | rain mn cm | humidity % | barometer mb |
| 20260505200052 | 10 | 23 | 1.6 | 9.7 | 0.00 | 0.00 | 0.00 | 87 | |
| 20260505193052 | 10 | 338 | 3.2 | 9.7 | 0.00 | 0.00 | 0.00 | 89 | |
| 20260505190052 | 10 | 0 | 1.6 | 6.4 | 0.00 | 0.00 | 0.00 | 88 | |
| 20260505183052 | 10 | 0 | 3.2 | 6.4 | 0.00 | 0.00 | 0.00 | 88 | |
| 20260505180051 | 10 | 0 | 1.6 | 6.4 | 0.00 | 0.00 | 0.00 | 87 | |
| 20260505173051 | 10 | 248 | 1.6 | 8.0 | 0.00 | 0.00 | 0.00 | 86 | |
| 20260505170051 | 9 | 158 | 3.2 | 16.1 | 0.00 | 0.00 | 0.00 | 85 | |
| 20260505163051 | 9 | 203 | 3.2 | 11.3 | 0.00 | 0.00 | 0.00 | 91 | |
| 20260505153051 | 7 | 0.0 | 4.8 | 0.00 | 0.00 | 0.00 | 92 | ||
| 20260505130139 | 6 | 180 | 3.2 | 6.4 | 0.00 | 0.00 | 0.00 | 92 | |
| 20260505123051 | 6 | 225 | 3.2 | 8.0 | 0.00 | 0.00 | 0.00 | 93 | |
| 20260505120051 | 7 | 203 | 3.2 | 6.4 | 0.00 | 0.00 | 0.00 | 93 | |
| 20260505113050 | 7 | 225 | 3.2 | 6.4 | 0.00 | 0.00 | 0.00 | 93 | |
| 20260505110139 | 7 | 203 | 3.2 | 8.0 | 0.00 | 0.00 | 0.00 | 93 | |
| 20260505100050 | 7 | 203 | 3.2 | 4.8 | 0.00 | 0.00 | 0.00 | 92 | |
| 20260505093050 | 7 | 203 | 3.2 | 8.0 | 0.00 | 0.00 | 0.00 | 92 | |
| 20260505090050 | 7 | 225 | 3.2 | 8.0 | 0.00 | 0.00 | 0.00 | 92 | |
| 20260505083114 | 7 | 180 | 3.2 | 9.7 | 0.00 | 0.00 | 0.00 | 91 | |
| 20260505080114 | 7 | 180 | 3.2 | 8.0 | 0.00 | 0.00 | 0.00 | 91 | |
| 20260505073049 | 7 | 180 | 3.2 | 6.4 | 0.00 | 0.00 | 0.00 | 91 | |
| 20260505070050 | 7 | 180 | 3.2 | 8.0 | 0.00 | 0.00 | 0.03 | 91 | |
| 20260505063050 | 7 | 225 | 3.2 | 6.4 | 0.00 | 0.00 | 0.03 | 90 | |
| 20260505060050 | 8 | 203 | 3.2 | 11.3 | 0.00 | 0.00 | 0.03 | 89 | |
| 20260505053050 | 8 | 180 | 3.2 | 14.5 | 0.00 | 0.00 | 0.03 | 88 | |
| 20260505040050 | 9 | 225 | 3.2 | 11.3 | 0.00 | 0.00 | 0.03 | 85 | |
| 20260505033049 | 10 | 203 | 1.6 | 6.4 | 0.00 | 0.00 | 0.03 | 83 | |
| 20260505030049 | 10 | 0.0 | 1.6 | 0.00 | 0.00 | 0.03 | 80 | ||
| 20260505023113 | 11 | 0 | 1.6 | 6.4 | 0.00 | 0.00 | 0.03 | 77 | |
| 20260505020049 | 12 | 23 | 3.2 | 6.4 | 0.00 | 0.00 | 0.03 | 74 | |
| 20260505013049 | 12 | 23 | 3.2 | 12.9 | 0.00 | 0.00 | 0.03 | 73 | |
| 20260505010049 | 12 | 0 | 3.2 | 14.5 | 0.00 | 0.00 | 0.03 | 71 | |
| 20260505003049 | 13 | 0 | 4.8 | 19.3 | 0.00 | 0.00 | 0.03 | 70 | |
| 20260505000049 | 14 | 0 | 4.8 | 19.3 | 0.00 | 0.00 | 0.03 | 69 | |
| 20260504233049 | 13 | 338 | 6.4 | 17.7 | 0.00 | 0.00 | 0.03 | 71 | |
| 20260504230049 | 13 | 0 | 4.8 | 19.3 | 0.00 | 0.00 | 0.03 | 72 | |
| 20260504223050 | 15 | 23 | 4.8 | 14.5 | 0.00 | 0.00 | 0.03 | 67 | |
| 20260504220051 | 13 | 0 | 9.7 | 22.5 | 0.00 | 0.00 | 0.03 | 75 | |
| 20260504213051 | 13 | 0 | 8.0 | 20.9 | 0.00 | 0.00 | 0.03 | 78 | |
| 20260504210051 | 13 | 0 | 4.8 | 17.7 | 0.00 | 0.00 | 0.03 | 80 | |
| 20260504203051 | 12 | 338 | 4.8 | 17.7 | 0.00 | 0.00 | 0.03 | 84 |